Weather History for Hereford, TX

Change the Weather History Date:

Monday, November 19, 2012

  Actual Average (KAMA) Record (KAMA)
Temperature  
Mean Temperature 52 °F 45 °F  
Max Temperature 71 °F 58 °F 82 °F (2007)
Min Temperature 33 °F 31 °F 13 °F (1906)
Degree Days  
Heating Degree Days 13 20  
Month to date heating degree days 310  
Since 1 July heating degree days 590  
Cooling Degree Days 0 0  
Month to date cooling degree days 0  
Year to date cooling degree days 1398  
Growing Degree Days 2 (Base 50)    
Moisture  
Dew Point 33 °F    
Average Humidity 59    
Maximum Humidity 93    
Minimum Humidity 16    
Precipitation  
Precipitation 0.00 in 0.02 in 0.71 in (1906)
Month to date precipitation 0.57  
Year to date precipitation 19.42  
Snow  
Snow 0.00 in 0.10 in 8.50 in (1906)
Month to date snowfall 1.3  
Since 1 July snowfall 1.5  
Since 1 September snowfall 1.5  
Snow Depth -    
Sea Level Pressure  
Sea Level Pressure 30.17 in    
Wind  
Wind Speed 12 mph (NW)    
Max Wind Speed 24 mph    
Max Gust Speed 25 mph    
Visibility 10 miles    
Events      
T = Trace of Precipitation, MM = Missing Value Source: NWS Daily Summary

Daily Weather History Graph

Daily Weather History Graph

Search for Another Location

Airport:

Trip Planner

Search our weather history database for the weather conditions in past years. The results will help you decide how hot, cold, wet, or windy it might be!

Date:

Astronomy

Nov. 19, 2012 Rise Set
Actual Time 7:27 AM CST 5:41 PM CST
Civil Twilight 7:00 AM CST 6:08 PM CST
Nautical Twilight 6:30 AM CST 6:39 PM CST
Astronomical Twilight 5:59 AM CST 7:09 PM CST
Moon 12:37 PM CST (11/19) No Moon Set
Length of Visible Light 11h 07m
Length of Day
10h 13m
Waxing Crescent, 41% of the Moon is Illuminated
Nov 19
Waxing Crescent
Nov 20
First Quarter
Nov 28
Full
Dec 6
Last Quarter
Dec 13
New

Hourly Weather History & Observations

Time (CST) Temp. Windchill Dew Point Humidity Pressure Visibility Wind Dir Wind Speed Gust Speed Precip Events Conditions
12:15 AM 44.6 °F 40.2 °F 41.0 °F 87% 30.13 in 10.0 mi SW 8.1 mph - N/A   Clear
12:35 AM 48.2 °F - 44.6 °F 87% 30.13 in 10.0 mi WSW 13.8 mph - N/A   Clear
12:55 AM 50.0 °F - 44.6 °F 82% 30.12 in 10.0 mi WSW 15.0 mph 24.2 mph N/A   Clear
1:15 AM 50.0 °F - 44.6 °F 82% 30.12 in 10.0 mi WSW 15.0 mph 23.0 mph N/A   Clear
1:35 AM 50.0 °F - 44.6 °F 82% 30.11 in 10.0 mi West 16.1 mph 21.9 mph N/A   Clear
1:55 AM 48.2 °F - 44.6 °F 87% 30.12 in 10.0 mi West 15.0 mph 23.0 mph N/A   Clear
2:15 AM 46.4 °F 40.1 °F 44.6 °F 93% 30.12 in 7.0 mi West 15.0 mph 23.0 mph N/A   Clear
2:35 AM 46.4 °F 39.0 °F 44.6 °F 93% 30.12 in 10.0 mi WNW 19.6 mph 24.2 mph N/A   Clear
2:55 AM 46.4 °F 38.5 °F 44.6 °F 93% 30.11 in 7.0 mi WNW 21.9 mph 25.3 mph N/A   Clear
3:15 AM 44.6 °F 35.9 °F 42.8 °F 93% 30.11 in 5.0 mi NW 23.0 mph - N/A   Clear
3:35 AM 42.8 °F 34.8 °F 41.0 °F 93% 30.11 in 5.0 mi WNW 17.3 mph 25.3 mph N/A   Clear
3:55 AM 42.8 °F 35.1 °F 41.0 °F 93% 30.12 in 5.0 mi WNW 16.1 mph 23.0 mph N/A   Clear
4:15 AM 42.8 °F 33.8 °F 41.0 °F 93% 30.12 in 10.0 mi WNW 21.9 mph - N/A   Clear
4:35 AM 44.6 °F 36.9 °F 41.0 °F 87% 30.13 in 10.0 mi West 18.4 mph 23.0 mph N/A   Clear
4:55 AM 44.6 °F 36.1 °F 41.0 °F 87% 30.13 in 10.0 mi WNW 21.9 mph 25.3 mph N/A   Clear
5:15 AM 42.8 °F 33.8 °F 39.2 °F 87% 30.13 in 10.0 mi WNW 21.9 mph - N/A   Clear
5:35 AM 42.8 °F 34.0 °F 37.4 °F 81% 30.14 in 10.0 mi WNW 20.7 mph - N/A   Clear
5:55 AM 41.0 °F 32.2 °F 37.4 °F 87% 30.14 in 10.0 mi WNW 18.4 mph 25.3 mph N/A   Clear
6:15 AM 41.0 °F 32.8 °F 37.4 °F 87% 30.14 in 10.0 mi WNW 16.1 mph 24.2 mph N/A   Clear
6:35 AM 41.0 °F 33.1 °F 35.6 °F 81% 30.14 in 10.0 mi West 15.0 mph 23.0 mph N/A   Clear
6:55 AM 39.2 °F 32.0 °F 35.6 °F 87% 30.14 in 10.0 mi West 11.5 mph 23.0 mph N/A   Clear
7:35 AM 35.6 °F 23.7 °F 33.8 °F 93% 30.15 in 10.0 mi NW 24.2 mph - N/A   Clear
7:55 AM 35.6 °F 23.7 °F 33.8 °F 93% 30.15 in 10.0 mi NW 24.2 mph - N/A   Clear
8:15 AM 35.6 °F 29.9 °F 33.8 °F 93% 30.16 in 10.0 mi West 6.9 mph 19.6 mph N/A   Clear
8:35 AM 37.4 °F 32.1 °F 35.6 °F 93% 30.17 in 10.0 mi West 6.9 mph - N/A   Clear
8:55 AM 41.0 °F 38.0 °F 35.6 °F 81% 30.17 in 10.0 mi West 4.6 mph - N/A   Clear
9:15 AM 42.8 °F 41.1 °F 35.6 °F 76% 30.19 in 10.0 mi West 3.5 mph - N/A   Clear
9:35 AM 42.8 °F - 37.4 °F 81% 30.20 in 10.0 mi Calm Calm - N/A   Clear
9:55 AM 44.6 °F 42.2 °F 37.4 °F 76% 30.20 in 10.0 mi West 4.6 mph - N/A   Clear
10:15 AM 46.4 °F 44.3 °F 39.2 °F 76% 30.20 in 10.0 mi NW 4.6 mph - N/A   Clear
10:35 AM 53.6 °F - 39.2 °F 58% 30.19 in 10.0 mi NW 9.2 mph 23.0 mph N/A   Clear
10:55 AM 57.2 °F - 35.6 °F 44% 30.19 in 10.0 mi NNW 8.1 mph - N/A   Clear
11:15 AM 60.8 °F - 33.8 °F 36% 30.20 in 10.0 mi North 10.4 mph 16.1 mph N/A   Clear
11:35 AM 62.6 °F - 32.0 °F 32% 30.20 in 10.0 mi North 6.9 mph - N/A   Clear
11:55 AM 64.4 °F - 32.0 °F 30% 30.20 in 10.0 mi NNW 4.6 mph 19.6 mph N/A   Clear
12:15 PM 64.4 °F - 28.4 °F 26% 30.19 in 10.0 mi North 4.6 mph - N/A   Clear
12:35 PM 66.2 °F - 28.4 °F 24% 30.18 in 10.0 mi North 6.9 mph - N/A   Clear
12:55 PM 68.0 °F - 28.4 °F 23% 30.17 in 10.0 mi North 6.9 mph - N/A   Clear
1:15 PM 69.8 °F - 28.4 °F 21% 30.16 in 10.0 mi North 4.6 mph - N/A   Clear
1:35 PM 69.8 °F - 28.4 °F 21% 30.16 in 10.0 mi North 6.9 mph - N/A   Clear
1:55 PM 69.8 °F - 26.6 °F 20% 30.15 in 10.0 mi North 6.9 mph - N/A   Clear
2:15 PM 71.6 °F - 26.6 °F 19% 30.15 in 10.0 mi North 3.5 mph - N/A   Clear
2:35 PM 71.6 °F - 23.0 °F 16% 30.14 in 10.0 mi Calm Calm - N/A   Clear
2:55 PM 71.6 °F - 24.8 °F 17% 30.15 in 10.0 mi NW 8.1 mph - N/A   Clear
3:15 PM 71.6 °F - 23.0 °F 16% 30.15 in 10.0 mi NW 4.6 mph - N/A   Clear
3:35 PM 69.8 °F - 23.0 °F 17% 30.15 in 10.0 mi North 3.5 mph - N/A   Clear
3:55 PM 69.8 °F - 21.2 °F 16% 30.15 in 10.0 mi North 5.8 mph - N/A   Clear
4:15 PM 69.8 °F - 21.2 °F 16% 30.16 in 10.0 mi WNW 3.5 mph - N/A   Clear
4:35 PM 69.8 °F - 21.2 °F 16% 30.16 in 10.0 mi NNW 5.8 mph - N/A   Clear
4:55 PM 68.0 °F - 23.0 °F 18% 30.17 in 10.0 mi NNW 4.6 mph - N/A   Clear
5:15 PM 64.4 °F - 23.0 °F 21% 30.17 in 10.0 mi NNW 5.8 mph - N/A   Clear
5:35 PM 60.8 °F - 24.8 °F 25% 30.18 in 10.0 mi NNW 5.8 mph - N/A   Clear
5:55 PM 55.4 °F - 28.4 °F 36% 30.18 in 10.0 mi NNW 4.6 mph - N/A   Clear
6:15 PM 53.6 °F - 28.4 °F 38% 30.19 in 10.0 mi NNE 3.5 mph - N/A   Clear
6:35 PM 55.4 °F - 26.6 °F 33% 30.20 in 10.0 mi North 3.5 mph - N/A   Clear
6:55 PM 51.8 °F - 26.6 °F 38% 30.20 in 10.0 mi North 5.8 mph - N/A   Clear
7:15 PM 51.8 °F - 28.4 °F 41% 30.21 in 10.0 mi North 5.8 mph - N/A   Clear
7:35 PM 44.6 °F 42.2 °F 28.4 °F 53% 30.21 in 10.0 mi NNW 4.6 mph - N/A   Clear
7:55 PM 42.8 °F 37.0 °F 28.4 °F 57% 30.22 in 10.0 mi North 10.4 mph - N/A   Clear
8:15 PM 42.8 °F 39.3 °F 28.4 °F 57% 30.22 in 10.0 mi North 5.8 mph - N/A   Clear
8:35 PM 42.8 °F 37.5 °F 28.4 °F 57% 30.22 in 10.0 mi NNE 9.2 mph - N/A   Clear
9:15 PM 42.8 °F 39.3 °F 26.6 °F 53% 30.23 in 10.0 mi NE 5.8 mph - N/A   Clear
9:35 PM 41.0 °F - 26.6 °F 57% 30.23 in 10.0 mi Calm Calm - N/A   Clear
9:55 PM 37.4 °F 34.9 °F 26.6 °F 65% 30.23 in 10.0 mi West 3.5 mph - N/A   Clear
10:15 PM 37.4 °F 34.9 °F 26.6 °F 65% 30.24 in 10.0 mi WNW 3.5 mph - N/A   Clear
10:35 PM 35.6 °F - 26.6 °F 70% 30.24 in 10.0 mi North - - N/A   Clear
10:55 PM 35.6 °F 30.7 °F 26.6 °F 70% 30.24 in 10.0 mi WNW 5.8 mph 16.1 mph N/A   Clear
11:15 PM 33.8 °F 28.6 °F 26.6 °F 75% 30.23 in 10.0 mi WNW 5.8 mph - N/A   Clear
11:35 PM 33.8 °F 21.6 °F 26.6 °F 75% 30.23 in 10.0 mi NW 23.0 mph - N/A   Clear
11:55 PM 33.8 °F 21.6 °F 26.6 °F 75% 30.23 in 10.0 mi NW 23.0 mph - N/A   Clear